Weather History for Omaha, NE

Change the Weather History Date:

Monday, October 31, 2011

  Actual Average Record
Temperature  
Mean Temperature 47 °F 47 °F  
Max Temperature 64 °F 58 °F 83 °F (1950)
Min Temperature 30 °F 36 °F 15 °F (1993)
Degree Days  
Heating Degree Days 18 18  
Month to date heating degree days 281 382  
Since 1 July heating degree days 397 485  
Cooling Degree Days 0 0  
Month to date cooling degree days 45 15  
Year to date cooling degree days 1378 1112  
Moisture  
Dew Point 27 °F    
Average Humidity 54    
Maximum Humidity 85    
Minimum Humidity 23    
Precipitation  
Precipitation 0.00 in 0.06 in 2.03 in (1920)
Month to date precipitation 0.39 2.15  
Year to date precipitation 25.68 27.94  
Snow  
Snow 0.00 in 0.00 in - ()
Month to date snowfall 0.0 0.3  
Since 1 July snowfall 0.0 0.3  
Snow Depth 0.00 in    
Sea Level Pressure  
Sea Level Pressure 30.03 in    
Wind  
Wind Speed 8 mph (SSE)    
Max Wind Speed 18 mph    
Max Gust Speed 21 mph    
Visibility 10 miles    
Events      
T = Trace of Precipitation, MM = Missing Value Source: NWS Daily Summary

Daily Weather History Graph

Daily Weather History Graph

Search for Another Location

Airport:

Trip Planner

Search our weather history database for the weather conditions in past years. The results will help you decide how hot, cold, wet, or windy it might be!

Date:

Astronomy

Oct. 31, 2011 Rise Set
Actual Time 7:53 AM CDT 6:20 PM CDT
Civil Twilight 7:24 AM CDT 6:48 PM CDT
Nautical Twilight 6:52 AM CDT 7:21 PM CDT
Astronomical Twilight 6:20 AM CDT 7:53 PM CDT
Moon 1:02 PM CDT (10/31) 10:56 PM CDT (10/31)
Length of Visible Light 11h 24m
Length of Day
10h 26m
Waxing Crescent, 30% of the Moon is Illuminated
Oct 31
Waxing Crescent
Nov 2
First Quarter
Nov 10
Full
Nov 18
Last Quarter
Nov 25
New

Hourly Weather History & Observations

Time (CDT) Temp. Windchill Dew Point Humidity Pressure Visibility Wind Dir Wind Speed Gust Speed Precip Events Conditions
12:52 AM 39.0 °F 36.8 °F 25.0 °F 57% 30.09 in 10.0 mi West 3.5 mph - N/A   Clear
1:52 AM 37.0 °F - 24.1 °F 59% 30.10 in 10.0 mi Calm Calm - N/A   Clear
2:52 AM 35.1 °F - 28.0 °F 76% 30.11 in 10.0 mi Calm Calm - N/A   Clear
3:52 AM 32.0 °F 28.7 °F 26.1 °F 79% 30.12 in 10.0 mi SE 3.5 mph - N/A   Clear
4:52 AM 34.0 °F - 26.1 °F 73% 30.11 in 10.0 mi Calm Calm - N/A   Clear
5:52 AM 34.0 °F - 26.1 °F 73% 30.11 in 10.0 mi Calm Calm - N/A   Clear
6:52 AM 30.9 °F - 26.1 °F 82% 30.12 in 10.0 mi Calm Calm - N/A   Clear
7:52 AM 30.9 °F - 25.0 °F 79% 30.11 in 10.0 mi Calm Calm - N/A   Clear
8:52 AM 34.0 °F 31.0 °F 28.0 °F 79% 30.11 in 10.0 mi South 3.5 mph - N/A   Clear
9:52 AM 39.9 °F 35.1 °F 28.0 °F 63% 30.11 in 10.0 mi SE 6.9 mph - N/A   Clear
10:52 AM 46.0 °F 42.5 °F 27.0 °F 47% 30.09 in 10.0 mi South 6.9 mph - N/A   Clear
11:52 AM 52.0 °F - 27.0 °F 38% 30.08 in 10.0 mi SSE 10.4 mph - N/A   Partly Cloudy
12:52 PM 57.0 °F - 26.1 °F 30% 30.04 in 10.0 mi South 13.8 mph - N/A   Clear
1:52 PM 60.1 °F - 24.1 °F 25% 30.00 in 10.0 mi South 16.1 mph - N/A   Clear
2:52 PM 62.1 °F - 24.1 °F 23% 29.98 in 10.0 mi South 12.7 mph - N/A   Clear
3:52 PM 63.0 °F - 26.1 °F 25% 29.95 in 10.0 mi South 16.1 mph - N/A   Clear
4:52 PM 64.0 °F - 28.0 °F 26% 29.94 in 10.0 mi South 12.7 mph - N/A   Clear
5:52 PM 62.1 °F - 28.0 °F 28% 29.92 in 10.0 mi SSE 13.8 mph - N/A   Clear
6:52 PM 57.0 °F - 28.0 °F 33% 29.93 in 10.0 mi SSE 11.5 mph - N/A   Clear
7:52 PM 55.9 °F - 28.0 °F 34% 29.94 in 10.0 mi SSE 11.5 mph - N/A   Clear
8:52 PM 55.4 °F - 30.2 °F 38% 29.93 in 10.0 mi SE 10.4 mph - N/A   Clear
9:52 PM 54.0 °F - 30.0 °F 40% 29.94 in 10.0 mi SSE 11.5 mph - N/A   Clear
10:52 PM 53.1 °F - 30.9 °F 43% 29.92 in 10.0 mi SE 15.0 mph - N/A   Clear
11:52 PM 51.8 °F - 30.2 °F 44% 29.90 in 10.0 mi SSE 12.7 mph - N/A   Clear